Wallops Island, VA

9:50 PM EST on December 15, 2019 (GMT -0500)
Wallops Flight Facility

Weather History for KWAL - October, 2019

Change the Weather History Date:

Wednesday, October 23, 2019

  Actual Average Record
Temperature  
Mean Temperature 58 °F 57 °F  
Max Temperature 68 °F 66 °F 79 °F (2007)
Min Temperature 47 °F 48 °F 33 °F (2003)
Degree Days  
Heating Degree Days 8    
Month to date heating degree days 81  
Since 1 July heating degree days 90  
Cooling Degree Days 0    
Month to date cooling degree days 53  
Year to date cooling degree days 1800  
Growing Degree Days 8 (Base 50)    
Moisture  
Dew Point 51 °F    
Average Humidity 78    
Maximum Humidity 100    
Minimum Humidity 36    
Precipitation  
Precipitation 0.00 in 0.10 in 0.04 in (2013)
Month to date precipitation 7.25 2.32  
Year to date precipitation 41.58 33.69  
Sea Level Pressure  
Sea Level Pressure 29.99 in    
Wind  
Wind Speed 8 mph ()    
Max Wind Speed 18 mph    
Max Gust Speed 23 mph    
Visibility 10.0 miles    
Events      
T = Trace of Precipitation, MM = Missing Value Source: Averaged Metar Reports

Daily Weather History Graph

Daily Weather History Graph

Search for Another Location

Airport or City:

Astronomy

Oct. 23, 2019 Rise Set
Actual Time 7:17 AM EDT 6:13 PM EDT
Civil Twilight 6:51 AM EDT 6:40 PM EDT
Nautical Twilight 6:20 AM EDT 7:11 PM EDT
Astronomical Twilight 5:49 AM EDT 7:41 PM EDT
Moon 1:41 AM EDT (10/23) 3:56 PM EDT (10/23)
Length of Visible Light 11h 49m
Length of Day
10h 55m
Waning Crescent, 27% of the Moon is Illuminated
Oct 23
Waning Crescent
Oct 27
New
Nov 4
First Quarter
Nov 12
Full
Nov 19
Last Quarter

Hourly Weather History & Observations

Time (EDT) Temp. Dew Point Humidity Pressure Visibility Wind Dir Wind Speed Gust Speed Precip Events Conditions
12:32 AM 62.6 °F 62.6 °F 100% 29.81 in 10.0 mi WNW 11.5 mph 19.6 mph N/A   Overcast
12:41 AM 63.0 °F 62.1 °F 97% 29.82 in 10.0 mi NW 12.7 mph 19.6 mph N/A   Overcast
12:50 AM 62.6 °F 60.8 °F 94% 29.82 in 10.0 mi NW 10.4 mph - N/A   Overcast
12:54 AM 62.1 °F 61.0 °F 96% 29.81 in 10.0 mi NW 10.4 mph - N/A   Overcast
1:03 AM 62.1 °F 61.0 °F 96% 29.82 in 10.0 mi NW 9.2 mph - N/A   Overcast
1:51 AM 60.8 °F 60.8 °F 100% 29.83 in 10.0 mi NW 6.9 mph - N/A   Overcast
1:54 AM 60.1 °F 60.1 °F 100% 29.83 in 10.0 mi NW 8.1 mph - N/A   Overcast
2:05 AM 59.0 °F 59.0 °F 100% 29.84 in 10.0 mi NW 6.9 mph - N/A   Overcast
2:20 AM 59.0 °F 59.0 °F 100% 29.84 in 10.0 mi NW 5.8 mph - N/A   Mostly Cloudy
2:54 AM 57.9 °F 57.9 °F 100% 29.84 in 10.0 mi WNW 5.8 mph - N/A   Clear
3:54 AM 55.9 °F 55.9 °F 100% 29.86 in 10.0 mi WNW 6.9 mph - N/A   Scattered Clouds
5:54 AM 55.0 °F 55.0 °F 100% 29.92 in 10.0 mi WNW 6.9 mph - N/A   Clear
6:54 AM 54.0 °F 52.0 °F 93% 29.94 in 10.0 mi NW 10.4 mph 19.6 mph N/A   Clear
7:54 AM 55.0 °F 48.9 °F 80% 29.99 in 10.0 mi NW 10.4 mph - N/A   Partly Cloudy
8:54 AM 57.9 °F 48.9 °F 72% 30.02 in 10.0 mi NW 10.4 mph - N/A   Partly Cloudy
9:54 AM 62.1 °F 48.0 °F 60% 30.04 in 10.0 mi NNW 9.2 mph - N/A   Partly Cloudy
10:54 AM 64.0 °F 44.1 °F 48% 30.05 in 10.0 mi NNW 8.1 mph - N/A   Clear
11:54 AM 66.0 °F 43.0 °F 43% 30.05 in 10.0 mi NW 12.7 mph 17.3 mph N/A   Clear
12:54 PM 66.9 °F 42.1 °F 40% 30.05 in 10.0 mi NNW 8.1 mph 18.4 mph N/A   Clear
1:54 PM 66.9 °F 41.0 °F 39% 30.05 in 10.0 mi WNW 10.4 mph - N/A   Clear
2:54 PM 66.9 °F 39.0 °F 36% 30.05 in 10.0 mi WNW 12.7 mph - N/A   Clear
3:54 PM 66.0 °F 42.1 °F 42% 30.07 in 10.0 mi WNW 10.4 mph 17.3 mph N/A   Clear
4:54 PM 64.9 °F 39.9 °F 40% 30.09 in 10.0 mi West 6.9 mph - N/A   Clear
5:54 PM 61.0 °F 43.0 °F 52% 30.11 in 10.0 mi WNW 4.6 mph - N/A   Clear
6:54 PM 55.0 °F 45.0 °F 69% 30.14 in 10.0 mi Calm Calm - N/A   Clear
7:54 PM 50.0 °F 45.0 °F 83% 30.17 in 10.0 mi WSW 3.5 mph - N/A   Clear
8:54 PM 50.0 °F 45.0 °F 83% 30.19 in 10.0 mi Calm Calm - N/A   Clear
9:54 PM 50.0 °F 46.0 °F 86% 30.21 in 10.0 mi Calm Calm - N/A   Clear
10:54 PM 48.9 °F 46.0 °F 90% 30.22 in 10.0 mi Calm Calm - N/A   Clear
11:54 PM 48.9 °F 46.0 °F 90% 30.22 in 10.0 mi Calm Calm - N/A   Clear